DW7680 Weather Reports


Display with metric or nautical units.
time (UTC)temp
F
wind
direction
speed
MPH
gust
MPH
rain 1hr
in
rain 24hr
in
rain mn
in
humidity
%
barometer
mb
20260502220005 47 88 2.0 9.0 0.00 0.01 0.00 75 1023.9
20260502214502 50 84 3.0 9.0 0.00 0.01 0.00 67 1024.1
20260502213003 49 121 5.0 14.0 0.00 0.01 0.00 66 1024.3
20260502211510 50 106 8.0 17.0 0.00 0.01 0.00 65 1024.7
20260502210007 50 100 6.0 12.0 0.00 0.01 0.00 64 1025.0
20260502204502 50 117 7.0 13.0 0.00 0.02 0.00 62 1025.2
20260502203002 51 80 5.0 12.0 0.00 0.02 0.00 64 1025.3
20260502201502 50 165 4.0 12.0 0.00 0.02 0.00 64 1025.4
20260502200003 49 123 3.0 9.0 0.00 0.03 0.00 65 1025.6
20260502194502 48 207 3.0 8.0 0.00 0.03 0.00 65 1025.8
20260502193002 49 107 1.0 9.0 0.00 0.03 0.00 66 1025.9
20260502191502 48 355 2.0 6.0 0.00 0.03 0.00 66 1026.1
20260502190004 48 170 1.0 3.0 0.00 0.03 0.00 66 1026.3
20260502184503 48 102 2.0 4.0 0.00 0.06 0.00 68 1026.6
20260502183005 46 125 3.0 10.0 0.00 0.06 0.00 68 1026.7
20260502181504 48 162 3.0 7.0 0.00 0.06 0.00 67 1027.1
20260502163002 40 170 1.0 6.0 0.00 0.07 0.00 82 1027.7
20260502161502 39 123 4.0 7.0 0.00 0.07 0.00 83 1027.7
20260502151501 38 107 3.0 7.0 0.00 0.09 0.00 85 1027.3
20260502123002 36 86 1.0 2.0 0.00 0.34 0.00 92 1025.6
20260502121503 35 86 0.0 2.0 0.00 0.34 0.00 92 1025.4
20260502114503 35 86 0.0 0.0 0.00 0.55 0.00 92 1024.8
20260502113003 35 86 0.0 0.0 0.00 0.55 0.00 92 1024.8
20260502111503 35 86 0.0 0.0 0.00 0.55 0.00 92 1024.8
20260502110004 35 86 0.0 0.0 0.00 0.55 0.00 92 1025.0
20260502104505 35 86 0.0 0.0 0.00 1.44 0.00 92 1025.0
20260502103003 35 86 1.0 2.0 0.00 1.44 0.00 92 1024.8
20260502101503 35 86 0.0 2.0 0.00 1.44 0.00 92 1024.7
20260502091509 36 46 0.0 3.0 0.00 1.44 0.00 92 1024.4
20260502070007 36 93 4.0 7.0 0.00 1.44 0.00 92 1023.9
20260502064510 36 65 1.0 3.0 0.00 1.44 0.00 91 1024.0
20260502063005 36 65 1.0 3.0 0.00 1.44 0.00 92 1024.0
20260502061504 36 15 2.0 4.0 0.00 1.44 0.00 92 1024.2
20260502060007 36 34 2.0 4.0 0.00 1.44 0.00 91 1024.2
20260502054512 36 74 1.0 2.0 0.00 1.44 1.44 91 1024.1
20260502053004 36 74 1.0 5.0 0.00 1.44 1.44 91 1023.9
20260502051508 36 82 3.0 5.0 0.00 1.44 1.44 91 1023.9
20260502050005 36 76 2.0 3.0 0.00 1.44 1.44 91 1023.9
20260502044504 36 67 2.0 5.0 0.00 1.44 1.44 91 1023.8
20260502043004 36 75 2.0 4.0 0.00 1.44 1.44 91 1023.5
20260502041505 36 87 2.0 7.0 0.00 1.44 1.44 91 1023.2
20260502040007 36 50 2.0 4.0 0.00 1.44 1.44 91 1023.2
20260502034505 36 44 2.0 7.0 0.00 1.44 1.44 91 1022.9
20260502033005 36 40 3.0 7.0 0.00 1.44 1.44 91 1022.9
20260502031504 36 62 2.0 6.0 0.00 1.44 1.44 91 1022.6
20260502030005 37 81 2.0 6.0 0.00 1.44 1.44 91 1022.0
20260502024502 37 78 4.0 8.0 0.00 1.44 1.44 90 1021.6
20260502023003 37 75 3.0 6.0 0.00 1.44 1.44 91 1021.5
20260502021502 37 71 2.0 3.0 0.00 1.44 1.44 91 1021.3
20260502020003 37 86 2.0 6.0 0.01 1.44 1.44 91 1021.3
20260502014504 37 38 4.0 10.0 0.01 1.44 1.44 90 1021.0
20260502013002 37 69 3.0 7.0 0.01 1.44 1.44 90 1020.6
20260502011502 37 50 4.0 11.0 0.01 1.44 1.44 90 1020.0
20260502010005 37 71 4.0 9.0 0.00 1.43 1.43 90 1019.6
20260502004505 37 33 3.0 8.0 0.00 1.43 1.43 90 1019.6
20260502003012 37 24 3.0 9.0 0.00 1.43 1.43 90 1019.4
20260502001504 37 42 3.0 11.0 0.00 1.43 1.43 90 1019.2
20260502000005 38 90 6.0 11.0 0.00 1.43 1.43 89 1018.8
20260501234503 38 76 5.0 13.0 0.00 1.43 1.43 89 1018.5
20260501233003 38 55 6.0 14.0 0.00 1.43 1.43 89 1018.2
20260501231503 38 45 8.0 13.0 0.00 1.43 1.43 89 1018.0
20260501230002 39 32 6.0 12.0 0.00 1.43 1.43 89 1017.8
20260501224503 39 72 8.0 14.0 0.00 1.43 1.43 88 1017.5
20260501223002 39 84 5.0 14.0 0.00 1.43 1.43 88 1017.3
20260501221502 40 44 2.0 9.0 0.00 1.43 1.43 88 1017.2